Spokane, WA

3:05 PM PDT on May 26, 2017 (GMT -0700)
Spokane International

Weather History for KGEG - January, 2014

Change the Weather History Date:

Monday, January 13, 2014

  Actual Average Record
Temperature  
Mean Temperature 41 °F 29 °F  
Max Temperature 46 °F 34 °F 53 °F (1945)
Min Temperature 35 °F 25 °F -13 °F (1909)
Degree Days  
Heating Degree Days 24 36  
Month to date heating degree days 425 478  
Since 1 July heating degree days 3293 3312  
Cooling Degree Days 0 0  
Month to date cooling degree days 0 0  
Year to date cooling degree days 0 0  
Moisture  
Dew Point 34 °F    
Average Humidity 75    
Maximum Humidity 89    
Minimum Humidity 60    
Precipitation  
Precipitation 0.00 in 0.06 in 0.44 in (1950)
Month to date precipitation 0.59 0.83  
Year to date precipitation 0.59 0.83  
Snow  
Snow 0.00 in 0.40 in 8.00 in (1950)
Month to date snowfall 2.5 6.0  
Since 1 July snowfall 9.3 28.1  
Snow Depth 0.00 in    
Sea Level Pressure  
Sea Level Pressure 30.26 in    
Wind  
Wind Speed 24 mph (SW)    
Max Wind Speed 39 mph    
Max Gust Speed 48 mph    
Visibility 10 miles    
Events      
T = Trace of Precipitation, MM = Missing Value Source: NWS Daily Summary

Daily Weather History Graph

Daily Weather History Graph

Search for Another Location

Airport or City:

Trip Planner

Search our weather history database for the weather conditions in past years. The results will help you decide how hot, cold, wet, or windy it might be!

Date:

Astronomy

Jan. 13, 2014 Rise Set
Actual Time 7:34 AM PST 4:23 PM PST
Civil Twilight 6:59 AM PST 4:58 PM PST
Nautical Twilight 6:21 AM PST 5:36 PM PST
Astronomical Twilight 5:44 AM PST 6:13 PM PST
Moon 2:43 PM PST (1/13) 5:26 AM PST (1/13)
Length of Visible Light 9h 58m
Length of Day
8h 48m
Waxing Gibbous, 95% of the Moon is Illuminated
Jan 13
Waxing Gibbous
Jan 15
Full
Jan 23
Last Quarter
Jan 30
New
Feb 6
First Quarter

Hourly Weather History & Observations

Time (PST) Temp. Windchill Dew Point Humidity Pressure Visibility Wind Dir Wind Speed Gust Speed Precip Events Conditions
12:53 AM 39.9 °F 30.0 °F 35.1 °F 83% 30.10 in 10.0 mi SW 21.9 mph 31.1 mph N/A   Mostly Cloudy
1:53 AM 39.9 °F 28.4 °F 35.1 °F 83% 30.12 in 10.0 mi SW 29.9 mph 36.8 mph N/A   Overcast
2:53 AM 39.9 °F 29.0 °F 34.0 °F 79% 30.14 in 10.0 mi SW 26.5 mph 34.5 mph N/A   Overcast
3:53 AM 39.9 °F 29.7 °F 34.0 °F 79% 30.13 in 10.0 mi SSW 23.0 mph 35.7 mph N/A   Overcast
4:53 AM 39.0 °F 28.8 °F 33.1 °F 79% 30.14 in 10.0 mi SSW 21.9 mph 31.1 mph N/A   Overcast
5:53 AM 37.9 °F 27.1 °F 33.1 °F 83% 30.14 in 10.0 mi SSW 23.0 mph 31.1 mph N/A   Overcast
6:53 AM 37.9 °F 28.2 °F 33.1 °F 83% 30.14 in 10.0 mi South 18.4 mph 24.2 mph N/A   Overcast
7:53 AM 37.9 °F 28.2 °F 33.1 °F 83% 30.19 in 10.0 mi SW 18.4 mph - N/A   Mostly Cloudy
8:53 AM 39.0 °F 27.8 °F 33.1 °F 79% 30.20 in 10.0 mi SW 26.5 mph - N/A   Mostly Cloudy
9:53 AM 39.9 °F 28.8 °F 34.0 °F 79% 30.22 in 10.0 mi SW 27.6 mph 36.8 mph N/A   Mostly Cloudy
10:53 AM 42.1 °F 31.0 °F 34.0 °F 73% 30.24 in 10.0 mi SW 32.2 mph 42.6 mph N/A   Mostly Cloudy
11:53 AM 44.1 °F 34.2 °F 34.0 °F 68% 30.24 in 10.0 mi SW 28.8 mph 41.4 mph N/A   Mostly Cloudy
12:53 PM 45.0 °F 34.6 °F 34.0 °F 65% 30.21 in 10.0 mi WSW 34.5 mph 46.0 mph N/A   Mostly Cloudy
1:53 PM 45.0 °F 34.9 °F 34.0 °F 65% 30.23 in 10.0 mi SW 32.2 mph 42.6 mph N/A   Mostly Cloudy
2:53 PM 46.0 °F 35.8 °F 34.0 °F 63% 30.25 in 10.0 mi WSW 36.8 mph 44.9 mph N/A   Mostly Cloudy
3:53 PM 44.1 °F 34.8 °F 34.0 °F 68% 30.30 in 10.0 mi SW 25.3 mph 34.5 mph N/A   Mostly Cloudy
4:53 PM 43.0 °F 32.9 °F 34.0 °F 71% 30.32 in 10.0 mi SW 27.6 mph 34.5 mph N/A   Mostly Cloudy
5:53 PM 42.1 °F 32.6 °F 34.0 °F 73% 30.36 in 10.0 mi SW 23.0 mph - N/A   Mostly Cloudy
6:53 PM 41.0 °F 30.9 °F 33.1 °F 73% 30.38 in 10.0 mi SW 24.2 mph 31.1 mph N/A   Mostly Cloudy
7:53 PM 39.0 °F 29.6 °F 33.1 °F 79% 30.40 in 10.0 mi SW 18.4 mph - N/A   Scattered Clouds
8:53 PM 37.9 °F 28.2 °F 32.0 °F 79% 30.44 in 10.0 mi SW 18.4 mph - N/A   Scattered Clouds
9:53 PM 37.0 °F 28.9 °F 32.0 °F 82% 30.47 in 10.0 mi SSW 12.7 mph - N/A   Scattered Clouds
10:53 PM 36.0 °F 31.1 °F 32.0 °F 86% 30.50 in 10.0 mi SSE 5.8 mph - N/A   Scattered Clouds
11:53 PM 36.0 °F 28.5 °F 32.0 °F 86% 30.52 in 10.0 mi South 10.4 mph - N/A   Scattered Clouds